AirNav   Air Wisconsin Up To $57,000 Bonus
 
 745 users online  

KGEO Brown County Airport
Georgetown, Ohio, USA

GOING TO GEORGETOWN?


FAA INFORMATION EFFECTIVE 02 JANUARY 2020

Location

FAA Identifier: GEO
Lat/Long: 38-52-55.0041N 083-52-57.8520W
38-52.916735N 083-52.964200W
38.8819456,-83.8827367
(estimated)
Elevation: 957.6 ft. / 291.9 m (surveyed)
Variation: 05W (2000)
From city: 1 mile NE of GEORGETOWN, OH
Time zone: UTC -5 (UTC -4 during Daylight Saving Time)
Zip code: 45121

Airport Operations

Airport use: Open to the public
Activation date: 04/1971
Control tower: no
ARTCC: INDIANAPOLIS CENTER
FSS: DAYTON FLIGHT SERVICE STATION
NOTAMs facility: DAY (NOTAM-D service available)
Attendance: UNATNDD
Wind indicator: lighted
Segmented circle: no
Lights: ACTVT REIL RWY 18 & 36; MIRL RWY 18/36 - CTAF.
Beacon: white-green (lighted land airport)
Operates sunset to sunrise.

Airport Communications

CTAF: 122.9
WX AWOS-3 at I69 (19 nm NW): 127.275 (513-732-6978)
  • APCH/DEP SVC PRVDD BY INDIANAPOLIS ARTCC ON FREQS 135.575/290.5 (MERWYN RCAG).

Nearby radio navigation aids

VOR radial/distance  VOR name  Freq  Var
FLMr059/24.4FALMOUTH VOR/DME117.0004W
MXQr191/33.1MIDWEST VOR/DME112.9004W
CVGr106/39.1CINCINNATI VORTAC117.3004W

 
NDB name  Hdg/Dist  Freq  Var  ID
WEST UNION280/15.035904WAMT .- -- -
SPORTYS131/19.424504WPWF .--. .-- ..-.
CINCINNATI132/27.133504WLUK .-.. ..- -.-

Airport Services

Fuel available: 100LL UL94
SELF SERVICE FUEL AVBL 24 HRS WITH CREDIT CARD.
Parking: hangars and tiedowns
Airframe service: FOR AIRFRAME & POWERPLANT REPAIRS PHONE 937-379-1055.
Bottled oxygen: NONE
Bulk oxygen: NONE

Runway Information

Runway 18/36

Dimensions: 3530 x 65 ft. / 1076 x 20 m
Surface: asphalt, in good condition
Runway edge lights: medium intensity
RUNWAY 18  RUNWAY 36
Latitude: 38-53.203233N38-52.630235N
Longitude: 083-53.027545W083-52.900865W
Elevation: 955.6 ft.953.3 ft.
Traffic pattern: leftleft
Runway heading: 175 magnetic, 170 true355 magnetic, 350 true
Markings: nonprecision, in good conditionnonprecision, in good condition
Visual slope indicator: 4-light PAPI on left (3.03 degrees glide path)4-light PAPI on left (3.03 degrees glide path)
Runway end identifier lights: yesyes
Touchdown point: yes, no lightsyes, no lights
Obstructions: 96 ft. trees, 854 ft. from runway, 186 ft. right of centerline, 6:1 slope to clear
ALSO 10 FT ROAD, 300 FT FM, 0 B, APCH RATIO 10:1.
38 ft. tree, 438 ft. from runway, 245 ft. right of centerline, 6:1 slope to clear

Airport Ownership and Management from official FAA records

Ownership: Publicly-owned
Owner: BROWN CO COMM
BROWN COUNTY COURTHOUSE
GEORGETOWN, OH 45121
Phone 937-378-3956
Manager: STEVE AND SANDY MCKINNEY
8862 AIRPORT ROAD
GEORGETOWN, OH 45121
Phone 937-515-0313
ADNL CTC: HOME 937-379-1634; BUS 937-379-1055. SPMCKINNEY@FRONTIER.COM.

Airport Operational Statistics

Aircraft based on the field: 8
Single engine airplanes: 8
    
Aircraft operations: avg 22/day *
61% local general aviation
37% transient general aviation
2% air taxi
<1% military
* for 12-month period ending 19 June 2019

Additional Remarks

AEROBATIC PRACTICE SFC TO 4500 FT AGL ABOVE RY 18/36.
FOR CD CTC INDIANAPOLIS ARTCC AT 317-247-2411.

Instrument Procedures

NOTE: All procedures below are presented as PDF files. If you need a reader for these files, you should download the free Adobe Reader.

NOT FOR NAVIGATION. Please procure official charts for flight.
FAA instrument procedures published for use from 02 January 2020 at 0901Z to 30 January 2020 at 0900Z.

 
IAPs - Instrument Approach Procedures
RNAV (GPS) RWY 36   download (174KB)
VOR/DME-A   download (163KB)
NOTE: Special Take-Off Minimums/Departure Procedures apply   download (164KB)

Other nearby airports with instrument procedures:

KAMT - Alexander Salamon Airport (15 nm E)
I69 - Clermont County Airport (19 nm NW)
KFGX - Fleming-Mason Airport (21 nm S)
KHOC - Highland County Airport (24 nm NE)
K62 - Gene Snyder Airport (26 nm SW)
 
Loc | Ops | Rwys | IFR | FBO | Links
Com | Nav | Svcs | Stats | Notes
Area around KGEO (Brown County Airport)
 
Road maps at: MapQuest Bing Google
 
Aerial photo
WARNING: Photo may not be current or correct
Aerial photo of KGEO (Brown County Airport)
Do you have a better or more recent aerial photo of Brown County Airport that you would like to share? If so, please send us your photo.

 
Sectional chart

 
Airport distance calculator
Flying to Brown County Airport? Find the distance to fly.

From to KGEO

Sunrise and sunset
Times for 24-Jan-2020
 Local
(UTC-5)
 Zulu
(UTC)
Morning civil twilight07:2012:20
Sunrise07:4912:49
Sunset17:4622:46
Evening civil twilight18:1523:15

Current date and time
Zulu (UTC)  24-Jan-2020 06:13:49
Local (UTC-5)  24-Jan-2020 01:13:49
 
METAR
KI69 
19nm NW 
240557Z AUTO 11006KT 10SM BKN045 BKN050 OVC070 04/00 A3001 RMK AO2 T00420001
KFGX 
21nm S 
240555Z AUTO 13011KT 10SM RA BKN055 OVC075 05/00 A3002 RMK AO2 T00480002 10061 20035 400961016
KLUK 
28nm NW 
240553Z AUTO 03004KT 10SM -RA BKN045 OVC055 03/02 A3000 RMK AO2 RAB06 SLP161 P0000 60009 T00330017 10056 20028 58023
KILN 
33nm N 
240554Z AUTO 12009KT 10SM SCT040 OVC047 03/M02 A3001 RMK AO2 RAE40 SLP181 P0001 60002 T00331017 10039 20022 58019
KCVG 
38nm W 
240552Z 12006KT 10SM -RA OVC033 04/00 A2997 RMK AO2 RAB0459E09B31 SLP150 P0000 60013 T00390000 10056 20033 58020
TAF
KLUK 
28nm NW 
240402Z 2404/2424 VRB03KT 6SM -RA OVC040 FM240600 11005KT 6SM -RA SCT018 OVC028 FM240800 13007KT 5SM -RA BR BKN010 OVC015 FM241000 14008KT 4SM RA BR SCT007 OVC009 TEMPO 2412/2416 2SM RA BR OVC007 FM241800 15006KT P6SM -RA OVC010 FM242000 19006KT P6SM VCSH BKN015 OVC022
KILN 
33nm N 
240542Z 2406/2506 12010KT P6SM -RA OVC040 FM240900 11008KT 6SM -RA SCT015 OVC025 FM241100 13010KT 5SM -RA BR SCT008 OVC012 FM241300 14010KT 3SM -RA BR SCT004 OVC007 TEMPO 2414/2418 2SM RA BR OVC004 FM242100 18008KT P6SM VCSH OVC010 FM250400 21006KT P6SM -RA OVC012
NOTAMs
Click for the latest NOTAMs
NOTAMs are issued by the DoD/FAA and will open in a separate window not controlled by AirNav.

 

 
 

FBO, Fuel Providers, and Aircraft Ground Support

  
 Business Name 
 
 Contact 
 
 Services / Description 
 
Fuel Prices
 
Comments
  
Brown County Pilots Association 937-379-1055
no information available

If you are affiliated with Brown County Pilots Association and would like to show here your services, contact info, web link, logo, and more, click here
100LL UL94
SS $5.29 $4.79 
 Updated 20-Jan-2020
 
   write
SS=Self service
Update Fuel Prices
 

Would you like to see your business listed on this page?

 If your business provides an interesting product or service to pilots, flight crews, aircraft, or users of the Brown County Airport, you should consider listing it here.  To start the listing process, click on the button below
 
Add a business
 

Other Pages about Brown County Airport

Update a link
 
Copyright © AirNav, LLC. All rights reserved. Privacy Policy  Contact